カタログに戻る

STARLINK-37780

運用中通信SSO
NORAD 69340·PAYLOAD·🇺🇸 United States

打ち上げ Jun 3, 2026 から Vandenberg Space Force Base

Loading…

次のパス (今後24時間)

TLE

最新Source: CelesTrak SupGP

元期: Sep 14, 2026, 23:17 UTC

1 69340C 26122M   26257.97062500  .00066363  00000+0  20606-2 0  2572
2 69340  97.2827 286.6624 0001586  98.6273 182.7375 15.33397304    10

AllMySatでSTARLINK-37780をリアルタイム追跡

Download on the App Store